Terminal Aerodrome Forecast
Issued by NWS Des Moines, IA

Home | Current Version | Previous Version | Text Only | Print | Product List | Glossary On
Versions: 1 2 3 4 5 6 7 8 9 10 11 12 13 14 15 16 17 18 19 20 21 22 23 24 25 26 27 28 29 30 31 32 33 34 35 36 37 38
000
FTUS43 KDMX 311741
TAFDSM
TAF
KDSM 311741Z 3118/0118 24008KT 6SM -DZ BR BKN014 OVC035
     FM312100 19006KT 4SM -RA BR OVC010
     FM010100 14008KT 1SM -SN OVC009
     FM010600 07011KT 1SM -SN OVC009
     FM011400 03017G24KT 1SM -SN BLSN OVC007=

USA.gov is the U.S. government's official web portal to all federal, state and local government web resources and services.